Tracking 19817 objects as of 19-Aug-2019
HD Live streaming from Space Station
objects crossing your sky now

FENGYUN 1C DEB

Track FENGYUN 1C DEB now!
10-day predictions


NORAD ID: 29855
Int'l Code: 1999-025EZ
Perigee: 782.0 km
Apogee: 1,099.3 km
Inclination: 98.2 °
Period: 103.7 minutes
Semi major axis: 7311 km
RCS: 0.043 m2 (small)
Launch date: May 10, 1999
Source: People's Republic of China (PRC)
Launch site: Taiyaun Space Center, China (TSC)

Note: This is SATELLITE DEBRIS
aabbcc
Your satellite tracking list
Your tracking list is empty




NASA's NSSDC Master Catalog

Two Line Element Set (TLE):
1 29855U 99025EZ  19228.96110644 +.00000396 +00000-0 +29743-3 0  9993
2 29855 098.1584 047.9669 0217018 025.5146 127.4890 13.88602712635686
Source of the keplerian elements: AFSPC